Weather History for Baltimore Martin, MD

Change the Weather History Date:

Friday, February 15, 2013

  Actual Average Record
Temperature  
Mean Temperature 42 °F -  
Max Temperature 53 °F 42 °F 55 °F (2005)
Min Temperature 30 °F 27 °F 19 °F (2007)
Degree Days  
Heating Degree Days 24    
Moisture  
Dew Point 34 °F    
Average Humidity 88    
Maximum Humidity 100    
Minimum Humidity 47    
Precipitation  
Precipitation 0.03 in - - ()
Sea Level Pressure  
Sea Level Pressure 30.02 in    
Wind  
Wind Speed 3 mph (North)    
Max Wind Speed 12 mph    
Max Gust Speed 21 mph    
Visibility 7 miles    
Events Rain    
Averages and records for this station are not official NWS values.
T = Trace of Precipitation, MM = Missing Value Source: NWS Daily Summary

Daily Weather History Graph

Daily Weather History Graph

Search for Another Location

Airport:

Trip Planner

Search our weather history database for the weather conditions in past years. The results will help you decide how hot, cold, wet, or windy it might be!

Date:

Astronomy

Feb. 15, 2013 Rise Set
Actual Time 6:57 AM EST 5:42 PM EST
Civil Twilight 6:29 AM EST 6:10 PM EST
Nautical Twilight 5:58 AM EST 6:41 PM EST
Astronomical Twilight 5:27 AM EST 7:12 PM EST
Moon 9:34 AM EST (2/15) 11:39 PM EST (2/15)
Length of Visible Light 11h 40m
Length of Day
10h 45m
Waxing Crescent, 30% of the Moon is Illuminated
Feb 15
Waxing Crescent
Feb 17
First Quarter
Feb 25
Full
Mar 4
Last Quarter
Mar 11
New

Hourly Weather History & Observations

Time (EST) Temp. Windchill Dew Point Humidity Pressure Visibility Wind Dir Wind Speed Gust Speed Precip Events Conditions
12:15 AM 37.4 °F 34.9 °F 33.8 °F 87% 30.04 in 10.0 mi South 3.5 mph - N/A   Clear
12:33 AM 37.4 °F - 32.0 °F 81% 30.04 in 10.0 mi Calm Calm - N/A   Clear
12:54 AM 32.0 °F - 32.0 °F 100% 30.03 in 10.0 mi Calm Calm - N/A   Clear
1:15 AM 32.0 °F - 30.2 °F 93% 30.03 in 7.0 mi Calm Calm - N/A   Clear
1:33 AM 32.0 °F - 30.2 °F 93% 30.02 in 7.0 mi Calm Calm - N/A   Clear
1:54 AM 32.0 °F - 32.0 °F 100% 30.02 in 7.0 mi Calm Calm - N/A   Clear
2:15 AM 32.0 °F - 30.2 °F 93% 30.02 in 7.0 mi Calm Calm - N/A   Clear
2:33 AM 32.0 °F - 30.2 °F 93% 30.02 in 5.0 mi Calm Calm - N/A   Clear
2:54 AM 32.0 °F 28.7 °F 32.0 °F 100% 30.02 in 5.0 mi ESE 3.5 mph - N/A   Clear
3:15 AM 30.2 °F - 30.2 °F 100% 30.02 in 7.0 mi Calm Calm - N/A   Scattered Clouds
3:33 AM 32.0 °F - 30.2 °F 93% 30.02 in 7.0 mi Calm Calm - N/A   Mostly Cloudy
3:54 AM 32.0 °F - 32.0 °F 100% 30.02 in 7.0 mi Calm Calm - N/A   Overcast
4:15 AM 32.0 °F 28.7 °F 32.0 °F 100% 30.02 in 5.0 mi NW 3.5 mph - N/A   Mostly Cloudy
4:33 AM 32.0 °F - 32.0 °F 100% 30.02 in 4.0 mi Calm Calm - N/A   Scattered Clouds
4:54 AM 32.0 °F - 32.0 °F 100% 30.02 in 4.0 mi Calm Calm - N/A   Clear
5:12 AM 32.0 °F - 32.0 °F 100% 30.02 in 3.0 mi Calm Calm - N/A   Clear
5:30 AM 32.0 °F - 32.0 °F 100% 30.02 in 2.0 mi Calm Calm - N/A   Clear
5:45 AM 30.2 °F - 30.2 °F 100% 30.02 in 6.0 mi Calm Calm - N/A   Partly Cloudy
6:45 AM 30.2 °F 26.7 °F 28.4 °F 93% 30.03 in 6.0 mi WNW 3.5 mph - N/A   Scattered Clouds
7:45 AM 32.0 °F 28.7 °F 32.0 °F 100% 30.04 in 6.0 mi ESE 3.5 mph - N/A   Scattered Clouds
8:45 AM 39.2 °F - 35.6 °F 87% 30.05 in 6.0 mi Calm Calm - N/A   Partly Cloudy
9:50 AM 42.8 °F 41.1 °F 37.4 °F 81% 30.06 in 7.0 mi ESE 3.5 mph - N/A   Partly Cloudy
10:45 AM 44.6 °F 42.2 °F 37.4 °F 76% 30.05 in 7.0 mi ESE 4.6 mph - N/A   Partly Cloudy
11:45 AM 46.4 °F 43.5 °F 37.4 °F 71% 30.03 in 7.0 mi ESE 5.8 mph - N/A   Partly Cloudy
12:45 PM 48.2 °F - 37.4 °F 66% 29.99 in 10.0 mi ESE 6.9 mph - N/A   Partly Cloudy
1:55 PM 50.0 °F - 39.2 °F 66% 29.97 in 10.0 mi SE 6.9 mph - N/A   Partly Cloudy
2:55 PM 51.8 °F - 39.2 °F 62% 29.95 in 10.0 mi SE 5.8 mph - N/A   Scattered Clouds
3:55 PM 53.6 °F - 37.4 °F 54% 29.94 in 10.0 mi SSE 5.8 mph - N/A   Scattered Clouds
4:45 PM 51.8 °F - 37.4 °F 58% 29.93 in 10.0 mi ESE 4.6 mph - N/A   Partly Cloudy
6:45 PM 51.8 °F - 32.0 °F 47% 29.95 in 10.0 mi NW 11.5 mph 20.7 mph N/A   Mostly Cloudy
8:55 PM 42.8 °F 36.6 °F 35.6 °F 76% 30.02 in 10.0 mi WNW 11.5 mph 18.4 mph N/A   Mostly Cloudy
9:45 PM 39.2 °F 32.0 °F 35.6 °F 87% 30.04 in 10.0 mi WNW 11.5 mph 20.7 mph N/A Rain Light Rain
10:15 PM 37.4 °F 30.8 °F 35.6 °F 93% 30.04 in 7.0 mi NW 9.2 mph - 0.01 in Rain Light Rain
10:36 PM 37.4 °F 32.1 °F 35.6 °F 93% 30.05 in 10.0 mi WNW 6.9 mph - 0.01 in Rain Light Rain
10:57 PM 37.4 °F 33.8 °F 35.6 °F 93% 30.04 in 7.0 mi NW 4.6 mph - N/A Rain Rain
11:15 PM 35.6 °F 31.7 °F 35.6 °F 100% 30.04 in 7.0 mi NW 4.6 mph - 0.01 in Rain Light Rain
11:36 PM 35.6 °F 30.7 °F 35.6 °F 100% 30.04 in 7.0 mi NW 5.8 mph - 0.02 in Rain Light Rain
11:57 PM 35.6 °F 32.8 °F 35.6 °F 100% 30.03 in 10.0 mi NNW 3.5 mph - N/A Rain Rain